Hourly Data Report for May 10, 2020

All times are specified in Local Standard Time (LST). Add 1 hour to adjust for Daylight Saving Time where and when it is observed.

OTTAWA INTL A
ONTARIO
Current Station Operator: NAVCAN

45°19'00.000" N
75°40'00.000" W
114.90 m
6106001
71628
YOW

Download Data

Hourly Data (May 2020)
Hourly Data Report for May 10, 2020
TIME Temp Definition
°C
Dew Point Definition
°C
Rel Hum Definition
%
Wind Dir Definition
10's deg

Wind Spd Definition
km/h
Visibility Definition
km
Stn Press Definition
kPa
Hmdx Definition


Wind Chill Definition


Weather Definition


00:00 1.4 -7.5 51 25 16 24.1 99.80     LegendNANA
01:00 1.7 -6.0 57 27 12 24.1 99.80     Cloudy
02:00 1.3 -5.6 60 26 13 24.1 99.80     LegendNANA
03:00 -0.2 -5.8 66 25 12 16.1 99.79   -4 LegendNANA
04:00 0.2 -4.4 72 25 14 16.1 99.82     Mostly Cloudy
05:00 0.8 -3.5 73 25 16 24.1 99.84     LegendNANA
06:00 1.4 -2.4 76 25 17 24.1 99.84     LegendNANA
07:00 3.3 -4.0 59 29 27 24.1 99.84     Mostly Cloudy
08:00 3.9 -4.8 53 27 25 24.1 99.85     LegendNANA
09:00 4.7 -5.3 48 27 27 24.1 99.83     LegendNANA
10:00 6.0 -5.3 44 27 34 24.1 99.84     Mostly Cloudy
11:00 7.2 -4.8 42 27 28 24.1 99.81     LegendNANA
12:00 8.8 -4.3 39 27 25 24.1 99.74     LegendNANA
13:00 10.2 -4.1 36 26 17 24.1 99.69     Mainly Clear
14:00 10.6 -4.9 33 28 25 24.1 99.63     LegendNANA
15:00 10.7 -4.1 35 28 21 24.1 99.58     LegendNANA
16:00 11.1 -5.0 32 29 20 24.1 99.56     Mainly Clear
17:00 11.7 -4.0 33 29 21 24.1 99.57     LegendNANA
18:00 11.0 -4.2 34 29 21 24.1 99.57     LegendNANA
19:00 9.3 -4.1 38 31 17 24.1 99.62     Mainly Clear
20:00 7.3 -4.0 44 31 16 24.1 99.67     LegendNANA
21:00 6.5 -4.0 47 24 7 24.1 99.74     LegendNANA
22:00 6.3 -4.9 45 35 18 24.1 99.78     Mainly Clear
23:00 4.7 -4.7 51 33 14 24.1 99.79     LegendNANA

Notes on Data Quality.

Legend

  • E = Estimated
  • M = Missing
  • NA = Not Available*
  • [empty] = Indicates an unobserved value
Date modified: